Time,TemperatureF,DewpointF,PressureIn,WindDirection,WindDirectionDegrees,WindSpeedMPH,WindSpeedGustMPH,Humidity,HourlyPrecipIn,Conditions,Clouds,dailyrainin,SoftwareType,DateUTC
2013-04-02 00:05:00,52.5,28.0,31.83,NNW,327,14.0,17.0,39,0.00,,,0.00,weatherlink.com 1.10,2013-04-02 06:05:00,
2013-04-02 00:20:00,52.8,28.0,31.84,NNW,339,7.0,14.0,38,0.00,,,0.00,weatherlink.com 1.10,2013-04-02 06:20:00,
2013-04-02 00:35:00,50.5,27.0,31.84,East,94,2.0,4.0,41,0.00,,,0.00,weatherlink.com 1.10,2013-04-02 06:35:00,
2013-04-02 00:50:00,49.2,27.0,31.85,SE,132,1.0,2.0,43,0.00,,,0.00,weatherlink.com 1.10,2013-04-02 06:50:00,
2013-04-02 01:05:00,49.1,28.0,31.86,WNW,300,3.0,5.0,44,0.00,,,0.00,weatherlink.com 1.10,2013-04-02 07:05:00,
2013-04-02 01:20:00,47.6,28.0,31.86,WNW,300,1.0,1.0,47,0.00,,,0.00,weatherlink.com 1.10,2013-04-02 07:20:00,
2013-04-02 01:35:00,46.9,28.0,31.87,WNW,300,0.0,2.0,48,0.00,,,0.00,weatherlink.com 1.10,2013-04-02 07:35:00,
2013-04-02 01:50:00,46.2,29.0,31.87,WNW,300,0.0,1.0,51,0.00,,,0.00,weatherlink.com 1.10,2013-04-02 07:50:00,
2013-04-02 02:05:00,46.1,29.0,31.88,WNW,300,0.0,2.0,51,0.00,,,0.00,weatherlink.com 1.10,2013-04-02 08:05:00,
2013-04-02 02:20:00,45.7,28.0,31.89,WNW,300,0.0,1.0,51,0.00,,,0.00,weatherlink.com 1.10,2013-04-02 08:20:00,
2013-04-02 02:35:00,45.8,28.0,31.89,WNW,300,0.0,1.0,51,0.00,,,0.00,weatherlink.com 1.10,2013-04-02 08:35:00,
2013-04-02 02:50:00,45.3,28.0,31.89,NNW,331,4.0,6.0,52,0.00,,,0.00,weatherlink.com 1.10,2013-04-02 08:50:00,
2013-04-02 03:05:00,45.3,29.0,31.89,NNW,333,6.0,9.0,53,0.00,,,0.00,weatherlink.com 1.10,2013-04-02 09:05:00,
2013-04-02 03:20:00,46.0,30.0,31.89,WNW,294,9.0,13.0,55,0.00,,,0.00,weatherlink.com 1.10,2013-04-02 09:20:00,
2013-04-02 03:35:00,45.9,29.0,31.90,WSW,255,3.0,11.0,53,0.00,,,0.00,weatherlink.com 1.10,2013-04-02 09:35:00,
2013-04-02 03:50:00,43.7,29.0,31.90,NW,311,5.0,5.0,57,0.00,,,0.00,weatherlink.com 1.10,2013-04-02 09:50:00,
2013-04-02 04:06:00,42.7,30.0,31.90,NW,321,4.0,5.0,60,0.00,,,0.00,weatherlink.com 1.10,2013-04-02 10:06:00,
2013-04-02 04:21:00,43.3,30.0,31.90,NW,318,2.0,4.0,59,0.00,,,0.00,weatherlink.com 1.10,2013-04-02 10:21:00,
2013-04-02 04:36:00,43.6,30.0,31.91,NNW,336,0.0,2.0,58,0.00,,,0.00,weatherlink.com 1.10,2013-04-02 10:36:00,
2013-04-02 04:51:00,43.6,30.0,31.91,NNW,336,2.0,3.0,58,0.00,,,0.00,weatherlink.com 1.10,2013-04-02 10:51:00,
2013-04-02 05:06:00,43.8,30.0,31.91,NNW,331,0.0,3.0,58,0.00,,,0.00,weatherlink.com 1.10,2013-04-02 11:06:00,
2013-04-02 05:21:00,43.4,29.0,31.92,NNW,333,0.0,3.0,58,0.00,,,0.00,weatherlink.com 1.10,2013-04-02 11:21:00,
2013-04-02 05:36:00,42.8,29.0,31.92,NNW,333,0.0,1.0,59,0.00,,,0.00,weatherlink.com 1.10,2013-04-02 11:36:00,
2013-04-02 06:06:00,42.9,28.0,31.93,East,94,2.0,5.0,57,0.00,,,0.00,weatherlink.com 1.10,2013-04-02 12:06:00,
2013-04-02 07:06:00,41.2,29.0,31.94,ESE,122,3.0,5.0,62,0.00,,,0.00,weatherlink.com 1.10,2013-04-02 13:06:00,
2013-04-02 07:21:00,39.8,29.0,31.94,ESE,117,2.0,4.0,66,0.00,,,0.00,weatherlink.com 1.10,2013-04-02 13:21:00,
2013-04-02 07:36:00,41.4,30.0,31.94,ESE,117,3.0,4.0,63,0.00,,,0.00,weatherlink.com 1.10,2013-04-02 13:36:00,
2013-04-02 07:51:00,42.6,29.0,31.95,ESE,117,2.0,3.0,60,0.00,,,0.00,weatherlink.com 1.10,2013-04-02 13:51:00,
2013-04-02 08:06:00,44.1,30.0,31.95,ESE,117,0.0,3.0,58,0.00,,,0.00,weatherlink.com 1.10,2013-04-02 14:06:00,
2013-04-02 08:36:00,43.7,30.0,31.95,SSE,160,0.0,2.0,60,0.00,,,0.00,weatherlink.com 1.10,2013-04-02 14:36:00,
2013-04-02 08:51:00,43.4,30.0,31.96,SW,227,0.0,3.0,60,0.00,,,0.00,weatherlink.com 1.10,2013-04-02 14:51:00,
2013-04-02 09:06:00,43.3,32.0,31.96,West,275,0.0,2.0,64,0.00,,,0.00,weatherlink.com 1.10,2013-04-02 15:06:00,
2013-04-02 09:21:00,46.0,33.0,31.96,SW,228,0.0,2.0,60,0.00,,,0.00,weatherlink.com 1.10,2013-04-02 15:21:00,
2013-04-02 10:07:00,45.4,31.0,31.95,SSE,156,1.0,3.0,58,0.00,,,0.00,weatherlink.com 1.10,2013-04-02 16:07:00,
2013-04-02 10:22:00,44.9,32.0,31.95,ESE,123,2.0,5.0,60,0.00,,,0.00,weatherlink.com 1.10,2013-04-02 16:22:00,
2013-04-02 10:37:00,46.5,33.0,31.94,SE,142,7.0,7.0,59,0.00,,,0.00,weatherlink.com 1.10,2013-04-02 16:37:00,
2013-04-02 10:52:00,47.7,33.0,31.93,ESE,117,3.0,8.0,58,0.00,,,0.00,weatherlink.com 1.10,2013-04-02 16:52:00,
2013-04-02 11:07:00,48.3,33.0,31.93,SE,131,3.0,8.0,55,0.00,,,0.00,weatherlink.com 1.10,2013-04-02 17:07:00,
2013-04-02 11:22:00,49.3,34.0,31.93,SSE,164,3.0,7.0,56,0.00,,,0.00,weatherlink.com 1.10,2013-04-02 17:22:00,
2013-04-02 11:37:00,50.0,35.0,31.92,SE,145,7.0,8.0,56,0.00,,,0.00,weatherlink.com 1.10,2013-04-02 17:37:00,
2013-04-02 12:07:00,50.6,34.0,31.91,SE,140,5.0,9.0,54,0.00,,,0.00,weatherlink.com 1.10,2013-04-02 18:07:00,
2013-04-02 12:52:00,52.4,36.0,31.89,SSE,162,2.0,10.0,53,0.00,,,0.00,weatherlink.com 1.10,2013-04-02 18:52:00,
2013-04-02 13:07:00,54.2,36.0,31.88,SSW,211,6.0,14.0,51,0.00,,,0.00,weatherlink.com 1.10,2013-04-02 19:07:00,
2013-04-02 13:22:00,54.7,36.0,31.87,SW,231,3.0,8.0,49,0.00,,,0.00,weatherlink.com 1.10,2013-04-02 19:22:00,
2013-04-02 13:37:00,55.2,35.0,31.87,WNW,295,6.0,11.0,47,0.00,,,0.00,weatherlink.com 1.10,2013-04-02 19:37:00,
2013-04-02 13:52:00,53.7,35.0,31.86,WNW,287,11.0,16.0,49,0.00,,,0.00,weatherlink.com 1.10,2013-04-02 19:52:00,
2013-04-02 14:07:00,53.9,35.0,31.86,NNW,338,4.0,12.0,49,0.00,,,0.00,weatherlink.com 1.10,2013-04-02 20:07:00,
2013-04-02 14:37:00,54.4,35.0,31.85,West,281,9.0,16.0,48,0.00,,,0.00,weatherlink.com 1.10,2013-04-02 20:37:00,
2013-04-02 14:52:00,54.6,34.0,31.84,West,271,6.0,13.0,46,0.00,,,0.00,weatherlink.com 1.10,2013-04-02 20:52:00,
2013-04-02 15:07:00,55.9,35.0,31.84,WSW,253,3.0,9.0,46,0.00,,,0.00,weatherlink.com 1.10,2013-04-02 21:07:00,
2013-04-02 15:22:00,56.5,35.0,31.83,West,262,7.0,12.0,44,0.00,,,0.00,weatherlink.com 1.10,2013-04-02 21:22:00,
2013-04-02 15:37:00,55.6,33.0,31.82,SSW,207,4.0,8.0,43,0.00,,,0.00,weatherlink.com 1.10,2013-04-02 21:37:00,
2013-04-02 16:07:00,56.2,33.0,31.82,NNW,333,12.0,22.0,41,0.00,,,0.00,weatherlink.com 1.10,2013-04-02 22:07:00,
2013-04-02 16:22:00,55.6,32.0,31.82,WNW,295,9.0,22.0,41,0.00,,,0.00,weatherlink.com 1.10,2013-04-02 22:22:00,
2013-04-02 16:52:00,55.5,32.0,31.81,WNW,297,15.0,27.0,41,0.00,,,0.00,weatherlink.com 1.10,2013-04-02 22:52:00,
2013-04-02 17:07:00,55.3,31.0,31.81,WNW,301,15.0,22.0,40,0.00,,,0.00,weatherlink.com 1.10,2013-04-02 23:07:00,
2013-04-02 17:22:00,55.8,32.0,31.81,WNW,296,14.0,25.0,41,0.00,,,0.00,weatherlink.com 1.10,2013-04-02 23:22:00,
2013-04-02 17:52:00,55.3,32.0,31.82,WNW,286,14.0,26.0,41,0.00,,,0.00,weatherlink.com 1.10,2013-04-02 23:52:00,
2013-04-02 18:07:00,55.4,32.0,31.82,West,281,20.0,24.0,41,0.00,,,0.00,weatherlink.com 1.10,2013-04-03 00:07:00,
2013-04-02 18:22:00,55.4,32.0,31.82,West,267,18.0,22.0,41,0.00,,,0.00,weatherlink.com 1.10,2013-04-03 00:22:00,
2013-04-02 18:37:00,54.2,31.0,31.82,NW,306,12.0,23.0,42,0.00,,,0.00,weatherlink.com 1.10,2013-04-03 00:37:00,
2013-04-02 19:07:00,54.1,31.0,31.82,West,272,23.0,28.0,42,0.00,,,0.00,weatherlink.com 1.10,2013-04-03 01:07:00,
2013-04-02 19:22:00,52.9,31.0,31.82,WNW,292,16.0,28.0,44,0.00,,,0.00,weatherlink.com 1.10,2013-04-03 01:22:00,
2013-04-02 19:37:00,52.8,31.0,31.83,WNW,293,14.0,25.0,44,0.00,,,0.00,weatherlink.com 1.10,2013-04-03 01:37:00,
2013-04-02 19:52:00,52.2,32.0,31.83,NW,315,15.0,22.0,46,0.00,,,0.00,weatherlink.com 1.10,2013-04-03 01:52:00,
2013-04-02 20:07:00,51.8,32.0,31.83,WNW,293,16.0,22.0,47,0.00,,,0.00,weatherlink.com 1.10,2013-04-03 02:07:00,
2013-04-02 20:37:00,50.9,33.0,31.83,WNW,296,13.0,22.0,50,0.00,,,0.00,weatherlink.com 1.10,2013-04-03 02:37:00,
2013-04-02 20:52:00,50.5,33.0,31.84,NW,310,10.0,23.0,51,0.00,,,0.00,weatherlink.com 1.10,2013-04-03 02:52:00,
2013-04-02 21:07:00,50.3,33.0,31.84,WNW,303,16.0,26.0,52,0.00,,,0.00,weatherlink.com 1.10,2013-04-03 03:07:00,
2013-04-02 21:22:00,50.1,33.0,31.86,NW,304,12.0,26.0,53,0.00,,,0.00,weatherlink.com 1.10,2013-04-03 03:22:00,
2013-04-02 21:37:00,50.1,33.0,31.87,WNW,303,12.0,24.0,53,0.00,,,0.00,weatherlink.com 1.10,2013-04-03 03:37:00,
2013-04-02 21:52:00,49.8,34.0,31.87,NNW,327,14.0,19.0,54,0.00,,,0.00,weatherlink.com 1.10,2013-04-03 03:52:00,
2013-04-02 22:07:00,49.5,34.0,31.88,WNW,293,20.0,25.0,55,0.00,,,0.00,weatherlink.com 1.10,2013-04-03 04:07:00,
2013-04-02 22:22:00,49.6,33.0,31.88,NW,317,24.0,25.0,54,0.00,,,0.00,weatherlink.com 1.10,2013-04-03 04:22:00,
2013-04-02 22:37:00,49.8,33.0,31.88,WNW,300,13.0,24.0,52,0.00,,,0.00,weatherlink.com 1.10,2013-04-03 04:37:00,
2013-04-02 22:52:00,49.5,32.0,31.88,NW,305,18.0,23.0,52,0.00,,,0.00,weatherlink.com 1.10,2013-04-03 04:52:00,
2013-04-02 23:07:00,49.1,33.0,31.88,NW,306,8.0,20.0,54,0.00,,,0.00,weatherlink.com 1.10,2013-04-03 05:07:00,
2013-04-02 23:22:00,48.8,33.0,31.88,NW,321,9.0,22.0,55,0.00,,,0.00,weatherlink.com 1.10,2013-04-03 05:22:00,
2013-04-02 23:37:00,48.1,33.0,31.89,NW,320,10.0,16.0,57,0.00,,,0.00,weatherlink.com 1.10,2013-04-03 05:37:00,
2013-04-02 23:52:00,47.8,33.0,31.89,NW,312,10.0,18.0,58,0.00,,,0.00,weatherlink.com 1.10,2013-04-03 05:52:00,